Weather History for Iron Mountain, MI

Change the Weather History Date:

Tuesday, February 12, 2013

  Actual Average Record
Temperature  
Mean Temperature 20 °F -  
Max Temperature 25 °F 27 °F 46 °F (1974)
Min Temperature 12 °F 3 °F -25 °F (1967)
Degree Days  
Heating Degree Days 45    
Moisture  
Dew Point 14 °F    
Average Humidity 76    
Maximum Humidity 92    
Minimum Humidity 65    
Precipitation  
Precipitation 0.00 in - - ()
Sea Level Pressure  
Sea Level Pressure 29.88 in    
Wind  
Wind Speed 8 mph (West)    
Max Wind Speed 12 mph    
Max Gust Speed 17 mph    
Visibility 10 miles    
Events Snow    
Averages and records for this station are not official NWS values.
T = Trace of Precipitation, MM = Missing Value Source: NWS Daily Summary

Daily Weather History Graph

Daily Weather History Graph

Search for Another Location

Airport:

Trip Planner

Search our weather history database for the weather conditions in past years. The results will help you decide how hot, cold, wet, or windy it might be!

Date:

Astronomy

Feb. 12, 2013 Rise Set
Actual Time 6:58 AM CST 5:15 PM CST
Civil Twilight 6:28 AM CST 5:45 PM CST
Nautical Twilight 5:53 AM CST 6:20 PM CST
Astronomical Twilight 5:18 AM CST 6:55 PM CST
Moon 7:45 AM CST (2/12) 8:28 PM CST (2/12)
Length of Visible Light 11h 17m
Length of Day
10h 16m
Waxing Crescent, 7% of the Moon is Illuminated
Feb 12
Waxing Crescent
Feb 17
First Quarter
Feb 25
Full
Mar 4
Last Quarter
Mar 11
New

Hourly Weather History & Observations

Time (CST) Temp. Windchill Dew Point Humidity Pressure Visibility Wind Dir Wind Speed Gust Speed Precip Events Conditions
12:54 AM 21.9 °F 10.4 °F 17.1 °F 82% 29.88 in 10.0 mi WNW 11.5 mph - N/A   Overcast
1:42 AM 21.2 °F 11.7 °F 15.8 °F 80% 29.83 in 10.0 mi WNW 8.1 mph - N/A   Scattered Clouds
1:54 AM 21.0 °F 12.4 °F 16.0 °F 81% 29.89 in 10.0 mi WNW 6.9 mph - N/A   Clear
2:54 AM 19.9 °F 11.1 °F 15.1 °F 81% 29.90 in 10.0 mi West 6.9 mph - N/A   Clear
3:42 AM 21.2 °F 10.1 °F 14.0 °F 74% 29.86 in 10.0 mi WNW 10.4 mph - N/A   Mostly Cloudy
3:54 AM 21.0 °F 11.4 °F 14.0 °F 74% 29.91 in 10.0 mi West 8.1 mph - N/A   Overcast
4:54 AM 21.0 °F 10.6 °F 15.1 °F 78% 29.93 in 10.0 mi West 9.2 mph 17.3 mph N/A   Overcast
5:54 AM 19.9 °F 8.6 °F 14.0 °F 78% 29.95 in 10.0 mi West 10.4 mph - N/A   Overcast
6:54 AM 19.9 °F 12.1 °F 14.0 °F 78% 29.96 in 10.0 mi WNW 5.8 mph - N/A   Overcast
7:54 AM 19.9 °F 13.4 °F 14.0 °F 78% 29.97 in 10.0 mi West 4.6 mph - 0.00 in   Overcast
8:54 AM 19.9 °F 11.1 °F 14.0 °F 78% 29.97 in 6.0 mi West 6.9 mph - 0.00 in Snow Light Snow
9:54 AM 21.0 °F 9.9 °F 12.9 °F 71% 29.96 in 10.0 mi WNW 10.4 mph - 0.00 in   Overcast
10:54 AM 21.9 °F 14.5 °F 12.9 °F 68% 29.96 in 9.0 mi West 5.8 mph - 0.00 in Snow Light Snow
11:54 AM 21.9 °F 11.0 °F 14.0 °F 72% 29.93 in 10.0 mi SW 10.4 mph - 0.00 in   Overcast
12:54 PM 23.0 °F 14.7 °F 15.1 °F 72% 29.90 in 10.0 mi WSW 6.9 mph - 0.00 in   Overcast
1:54 PM 24.1 °F 14.4 °F 14.0 °F 65% 29.88 in 10.0 mi WSW 9.2 mph - 0.00 in   Overcast
2:54 PM 24.1 °F 13.7 °F 15.1 °F 69% 29.87 in 10.0 mi WSW 10.4 mph - 0.00 in   Overcast
3:46 PM 24.8 °F 16.9 °F 15.8 °F 69% 29.79 in 10.0 mi West 6.9 mph - N/A   Scattered Clouds
3:54 PM 25.0 °F 17.1 °F 16.0 °F 69% 29.86 in 10.0 mi West 6.9 mph - N/A   Partly Cloudy
4:54 PM 24.1 °F 15.2 °F 16.0 °F 71% 29.84 in 10.0 mi WSW 8.1 mph - N/A   Clear
5:54 PM 21.0 °F 16.2 °F 15.1 °F 78% 29.85 in 10.0 mi SW 3.5 mph - N/A   Clear
6:54 PM 21.0 °F 14.6 °F 15.1 °F 78% 29.85 in 10.0 mi SW 4.6 mph - N/A   Mostly Cloudy
7:54 PM 21.9 °F 17.2 °F 15.1 °F 75% 29.83 in 10.0 mi SW 3.5 mph - N/A   Overcast
8:54 PM 21.0 °F - 15.1 °F 78% 29.81 in 10.0 mi Calm Calm - N/A   Overcast
9:54 PM 18.0 °F 12.7 °F 14.0 °F 84% 29.79 in 10.0 mi South 3.5 mph - N/A   Clear
10:54 PM 15.1 °F - 10.0 °F 80% 29.78 in 10.0 mi Calm Calm - N/A   Clear
11:54 PM 12.0 °F - 10.0 °F 92% 29.76 in 9.0 mi Calm Calm - N/A   Clear